When you browse on this site, cookies collect data to enhance your experience and personalize the content and advertising you see.
Visit our Privacy Policy to learn more. By continuing to use the site, you agree to this use of cookies and data.
  • In United Kingdom
  • List of Countries
  • For 7 days
  • Water Temperature
  • Weather Map
  • Weather Widgets
  • user-avatar
    Login

    Hourly Weather Vsini

    Today, 25 August, Sunday

    Time Temperature Precipitation Wind Pressure Humidity
    00:00 +12°C° 0 mm 1 mps 762 mmHg 91%
    01:00 +11°C° 0 mm 1 mps 763 mmHg 93%
    02:00 +11°C° 0 mm 1 mps 763 mmHg 95%
    03:00 +11°C° 0 mm 1 mps 763 mmHg 94%
    04:00 +11°C° 0 mm 1 mps 764 mmHg 94%
    05:00 +11°C° 0 mm 1 mps 764 mmHg 94%
    06:00 +13°C° 0 mm 1 mps 764 mmHg 86%
    07:00 +15°C° 0 mm 1 mps 764 mmHg 78%
    08:00 +18°C° 0 mm 1 mps 765 mmHg 70%
    09:00 +17°C° 0 mm 0 mps 765 mmHg 64%
    10:00 +19°C° 0 mm 0 mps 765 mmHg 58%
    11:00 +21°C° 0 mm 0 mps 765 mmHg 52%
    12:00 +21°C° 0 mm 0 mps 764 mmHg 51%
    13:00 +22°C° 0 mm 0 mps 764 mmHg 49%
    14:00 +22°C° 0 mm 0 mps 765 mmHg 46%
    15:00 +22°C° 0 mm 0 mps 764 mmHg 49%
    16:00 +21°C° 0 mm 0 mps 764 mmHg 52%
    17:00 +23°C° 0 mm 1 mps 764 mmHg 55%
    18:00 +20°C° 0 mm 1 mps 764 mmHg 62%
    19:00 +18°C° 0 mm 1 mps 764 mmHg 70%
    20:00 +15°C° 0 mm 1 mps 764 mmHg 78%
    21:00 +14°C° 0 mm 1 mps 764 mmHg 80%
    22:00 +14°C° 0 mm 1 mps 764 mmHg 81%
    23:00 +13°C° 0 mm 1 mps 763 mmHg 83%

    Tomorrow, 26 August, Monday

    Time Temperature Precipitation Wind Pressure Humidity
    00:00 +13°C° 0 mm 1 mps 764 mmHg 85%
    01:00 +13°C° 0 mm 1 mps 764 mmHg 86%
    02:00 +12°C° 0 mm 2 mps 764 mmHg 88%
    03:00 +12°C° 0 mm 2 mps 764 mmHg 89%
    04:00 +12°C° 0 mm 2 mps 763 mmHg 90%
    05:00 +12°C° 0 mm 2 mps 763 mmHg 91%
    06:00 +13°C° 0 mm 2 mps 763 mmHg 84%
    07:00 +15°C° 0 mm 2 mps 763 mmHg 77%
    08:00 +17°C° 0 mm 2 mps 763 mmHg 71%
    09:00 +19°C° 0 mm 3 mps 762 mmHg 66%
    10:00 +21°C° 0 mm 3 mps 762 mmHg 61%
    11:00 +22°C° 0 mm 3 mps 762 mmHg 55%
    12:00 +24°C° 0 mm 3 mps 761 mmHg 54%
    13:00 +24°C° 0 mm 3 mps 761 mmHg 53%
    14:00 +25°C° 0 mm 4 mps 761 mmHg 52%
    15:00 +25°C° 0 mm 3 mps 761 mmHg 58%
    16:00 +24°C° 0 mm 3 mps 760 mmHg 64%
    17:00 +24°C° 0 mm 2 mps 760 mmHg 69%
    18:00 +21°C° 0 mm 2 mps 760 mmHg 74%
    19:00 +20°C° 0 mm 2 mps 760 mmHg 79%
    20:00 +19°C° 0 mm 2 mps 760 mmHg 84%
    21:00 +18°C° 0 mm 2 mps 760 mmHg 86%
    22:00 +17°C° 0 mm 2 mps 760 mmHg 88%
    23:00 +17°C° 0 mm 2 mps 760 mmHg 90%

    Day after tomorrow, 27 August, Tuesday

    Time Temperature Precipitation Wind Pressure Humidity
    00:00 +16°C° 0 mm 2 mps 760 mmHg 93%
    01:00 +16°C° 0 mm 2 mps 760 mmHg 95%
    02:00 +15°C° 0 mm 2 mps 761 mmHg 97%
    03:00 +15°C° 0 mm 2 mps 761 mmHg 97%
    04:00 +15°C° 0 mm 2 mps 761 mmHg 97%
    05:00 +14°C° 0 mm 2 mps 761 mmHg 97%
    06:00 +16°C° 0 mm 2 mps 761 mmHg 89%
    07:00 +17°C° 0 mm 2 mps 761 mmHg 81%
    08:00 +19°C° 0 mm 2 mps 762 mmHg 73%
    09:00 +20°C° 0 mm 2 mps 762 mmHg 64%
    10:00 +21°C° 0 mm 3 mps 762 mmHg 55%
    11:00 +22°C° 0 mm 3 mps 762 mmHg 47%
    12:00 +24°C° 0 mm 3 mps 762 mmHg 45%
    13:00 +24°C° 0 mm 3 mps 762 mmHg 44%
    14:00 +24°C° 0 mm 3 mps 762 mmHg 43%
    15:00 +24°C° 0 mm 2 mps 762 mmHg 47%
    16:00 +24°C° 0 mm 2 mps 762 mmHg 51%
    17:00 +23°C° 0 mm 1 mps 762 mmHg 55%
    18:00 +21°C° 0 mm 1 mps 762 mmHg 62%
    19:00 +19°C° 0 mm 1 mps 762 mmHg 68%
    20:00 +16°C° 0 mm 1 mps 762 mmHg 75%
    21:00 +15°C° 0 mm 1 mps 763 mmHg 78%
    22:00 +14°C° 0 mm 1 mps 763 mmHg 82%
    23:00 +14°C° 0 mm 1 mps 763 mmHg 85%

    28 August, Wednesday

    Time Temperature Precipitation Wind Pressure Humidity
    00:00 +13°C° 0 mm 1 mps 763 mmHg 86%
    01:00 +13°C° 0 mm 1 mps 764 mmHg 87%
    02:00 +12°C° 0 mm 1 mps 764 mmHg 88%
    03:00 +12°C° 0 mm 1 mps 764 mmHg 88%
    04:00 +12°C° 0 mm 1 mps 764 mmHg 88%
    05:00 +11°C° 0 mm 1 mps 764 mmHg 89%
    06:00 +13°C° 0 mm 1 mps 764 mmHg 82%
    07:00 +15°C° 0 mm 1 mps 764 mmHg 75%
    08:00 +18°C° 0 mm 1 mps 765 mmHg 68%
    09:00 +19°C° 0 mm 1 mps 764 mmHg 63%
    10:00 +21°C° 0 mm 1 mps 764 mmHg 57%
    11:00 +21°C° 0 mm 2 mps 764 mmHg 51%
    12:00 +23°C° 0 mm 2 mps 764 mmHg 50%
    13:00 +23°C° 0 mm 2 mps 764 mmHg 49%
    14:00 +24°C° 0 mm 2 mps 764 mmHg 47%
    15:00 +23°C° 0 mm 2 mps 764 mmHg 51%
    16:00 +23°C° 0 mm 2 mps 763 mmHg 55%
    17:00 +23°C° 0 mm 2 mps 763 mmHg 58%
    18:00 +20°C° 0 mm 1 mps 763 mmHg 66%
    19:00 +18°C° 0 mm 1 mps 763 mmHg 73%
    20:00 +15°C° 0 mm 1 mps 763 mmHg 81%
    21:00 +15°C° 0 mm 1 mps 763 mmHg 82%
    22:00 +14°C° 0 mm 1 mps 763 mmHg 83%
    23:00 +13°C° 0 mm 1 mps 764 mmHg 84%

    29 August, Thursday

    Time Temperature Precipitation Wind Pressure Humidity
    00:00 +13°C° 0 mm 1 mps 764 mmHg 84%
    01:00 +12°C° 0 mm 1 mps 764 mmHg 84%
    02:00 +12°C° 0 mm 1 mps 764 mmHg 85%
    03:00 +12°C° 0 mm 1 mps 764 mmHg 86%
    04:00 +11°C° 0 mm 1 mps 763 mmHg 87%
    05:00 +11°C° 0 mm 1 mps 763 mmHg 89%
    06:00 +13°C° 0 mm 1 mps 763 mmHg 82%
    07:00 +15°C° 0 mm 1 mps 763 mmHg 74%
    08:00 +18°C° 0 mm 1 mps 763 mmHg 67%
    09:00 +18°C° 0 mm 2 mps 763 mmHg 61%
    10:00 +20°C° 0 mm 2 mps 763 mmHg 55%
    11:00 +21°C° 0 mm 2 mps 763 mmHg 49%
    12:00 +23°C° 0 mm 2 mps 763 mmHg 48%
    13:00 +24°C° 0 mm 2 mps 762 mmHg 46%
    14:00 +24°C° 0 mm 3 mps 762 mmHg 45%
    15:00 +24°C° 0 mm 2 mps 762 mmHg 48%
    16:00 +23°C° 0 mm 2 mps 761 mmHg 51%
    17:00 +23°C° 0 mm 2 mps 761 mmHg 54%
    18:00 +19°C° 0 mm 2 mps 761 mmHg 60%
    19:00 +17°C° 0 mm 2 mps 761 mmHg 65%
    20:00 +15°C° 0 mm 2 mps 761 mmHg 71%
    21:00 +14°C° 0 mm 2 mps 761 mmHg 72%
    22:00 +13°C° 0 mm 2 mps 761 mmHg 73%
    23:00 +13°C° 0 mm 2 mps 761 mmHg 74%

    30 August, Friday

    Time Temperature Precipitation Wind Pressure Humidity
    00:00 +12°C° 0 mm 2 mps 761 mmHg 77%
    01:00 +12°C° 0 mm 2 mps 761 mmHg 79%
    02:00 +10°C° 0 mm 2 mps 760 mmHg 82%
    03:00 +10°C° 0 mm 2 mps 760 mmHg 84%
    04:00 +10°C° 0 mm 2 mps 760 mmHg 86%
    05:00 +9°C° 0 mm 2 mps 760 mmHg 88%
    06:00 +12°C° 0 mm 2 mps 760 mmHg 81%
    07:00 +14°C° 0 mm 2 mps 760 mmHg 74%
    08:00 +15°C° 0 mm 2 mps 760 mmHg 68%
    09:00 +17°C° 0 mm 3 mps 760 mmHg 61%
    10:00 +19°C° 0 mm 3 mps 759 mmHg 54%
    11:00 +21°C° 0 mm 3 mps 759 mmHg 48%
    12:00 +21°C° 0 mm 3 mps 759 mmHg 46%
    13:00 +22°C° 0 mm 4 mps 759 mmHg 45%
    14:00 +22°C° 0 mm 4 mps 758 mmHg 43%
    15:00 +22°C° 0 mm 3 mps 758 mmHg 48%
    16:00 +21°C° 0 mm 3 mps 758 mmHg 53%
    17:00 +20°C° 0 mm 2 mps 758 mmHg 59%
    18:00 +19°C° 0 mm 2 mps 758 mmHg 62%
    19:00 +18°C° 0 mm 2 mps 758 mmHg 66%
    20:00 +17°C° 0 mm 2 mps 758 mmHg 70%
    21:00 +16°C° 0 mm 2 mps 758 mmHg 70%
    22:00 +16°C° 0 mm 2 mps 758 mmHg 69%
    23:00 +16°C° 0 mm 2 mps 758 mmHg 69%
    Show more